Location: Hokitika
(42.7170°S, 170.9670°E)
Time: 03:11:23
(UTC+13:00)

Helios 1B rocket - Pass Details

Date: 24 January 2019
Orbit: 575 x 585 km, 98.2° (Epoch: 23 February)

Event Time Altitude Azimuth Distance (km) Brightness Sun altitude
Exits shadow 23:01:08 35° 44° (NE) 948 2.9 -17.1°
Maximum altitude 23:02:37 59° 106° (ESE) 684 2.6 -17.3°
Drops below altitude 10° 23:06:44 10° 185° (S) 1,929 5.9 -17.8°
Sets 23:08:56 0° 189° (S) 2,839 7.0 -18.0°
